Regional Weather Roundup
Issued by NWS

Home | Current Version | Previous Version | Graphics & Text | Print | Product List | Glossary On
Versions: 1 2 3 4 5 6 7 8 9 10 11 12 13 14 15 16 17 18 19 20 21 22 23 24 25 26 27 28 29 30 31 32 33 34 35 36 37 38 39 40 41 42 43 44 45 46 47 48 49 50
025
ASUS44 KJAN 210903
RWRMS

MISSISSIPPI HOURLY WEATHER ROUNDUP
NATIONAL WEATHER SERVICE JACKSON MS
300 AM CST SUN DEC 21 2014

NOTE: "FAIR: INDICATES FEW OR NO CLOUDS BELOW 12,000 FEET WITH NO
SIGNIFICANT WEATHER AND/OR OBSTRUCTIONS TO VISIBILITY.

MSZ001>002-007>008-010>013-018>021-025>028-034>036-211000-
NORTHWEST MISSISSIPPI

CITY           SKY/WX    TMP DP  RH WIND       PRES   REMARKS
CLARKSDALE     FAIR      36  34  93 CALM      30.22F
CLEVELAND      FAIR      35  35  99 CALM      30.20F
GREENWOOD      CLEAR     37  32  82 E3        30.20F
GREENVILLE     CLEAR     34  32  92 NE3       30.19F FOG
GRENADA        FAIR      32  30  93 CALM      30.22S
OLIVE BRANCH   CLEAR     32  32 100 NE6       30.22F WCI  26
OXFORD         FAIR      32  28  86 E3        30.22S
TUNICA         SUNNY     34  32  93 N3        30.23S
$$

MSZ003>006-009-014>017-022>024-029>033-037>039-211000-
NORTHEAST MISSISSIPPI

CITY           SKY/WX    TMP DP  RH WIND       PRES   REMARKS
COLUMBUS AFB   CLEAR     33  31  93 CALM      30.20F
CORINTH        FAIR      30  28  93 CALM      30.22F
GOLDN TRIANGLE CLEAR     32  28  86 N3        30.19F
STARKVILLE     FAIR      32  32 100 CALM      30.20F
TUPELO         CLEAR     30  27  88 NE6       30.21F WCI  24
$$

MSZ040-058-211000-
CENTRAL MISSISSIPPI

CITY           SKY/WX    TMP DP  RH WIND       PRES   REMARKS
JACKSON INTL   CLEAR     39  36  89 NE7       30.18S WCI  34
JACKSON HAWKNS CLEAR     38  36  92 NE3       30.18S
MERIDIAN KEY   CLEAR     32  31  96 N3        30.17F
MERIDIAN NAS   CLEAR     33  31  92 CALM      30.19S
RAYMOND        FAIR      32  28  86 MISG      30.18S FOG
VICKSBURG      CLEAR     39  36  89 CALM      30.18F
$$

MSZ059>079-211000-
SOUTH MISSISSIPPI

CITY           SKY/WX    TMP DP  RH WIND       PRES   REMARKS
HATTIESBURG    CLOUDY    47  43  86 N3        30.16F
MCCOMB         CLEAR     43  39  86 NE5       30.14F
NATCHEZ        CLEAR     36  34  93 CALM      30.16F
PINE BELT      MOCLDY    45  39  81 N6        30.16S
$$

MSZ080>082-211000-
COASTAL MISSISSIPPI

CITY           SKY/WX    TMP DP  RH WIND       PRES   REMARKS
BILOXI         CLOUDY    51  48  90 NE6       30.13S
PASCAGOULA     CLOUDY    50  47  89 N5        30.13S
GULFPORT       CLOUDY    50  46  86 N7        30.13S
$$



USA.gov is the U.S. government's official web portal to all federal, state and local government web resources and services.